Location: St. Louis
(38.6270°N, 90.1994°W)
Time: 00:31:21
(UTC-06:00)

Vanguard 2 - Pass Details

Date: 30 November 2021
Orbit: 553 x 2936 km, 32.9° (Epoch: 16 January)

Event Time Altitude Azimuth Distance (km) Brightness Sun altitude
Rises 21:25:12 0° 269° (W) 5,347 12.3 -54.9°
Reaches altitude 10° 21:30:05 10° 252° (WSW) 4,759 11.8 -55.8°
Maximum altitude 21:38:17 18° 215° (SW) 4,641 11.4 -57.3°
Enters shadow 21:40:31 18° 206° (SSW) 4,791 11.5 -57.7°
Drops below altitude 10° 21:47:57 10° 180° (S) 5,672 - -59.0°
Sets 21:54:53 0° 165° (SSE) 6,776 - -60.2°
